Find Starlink 36610

NORAD ID: 67637 Int'l Des: 2026-020 Owner: SPXS Country: US Constellation: starlink operational
LEOCIRCULAR

現在のビュー

3D地球を読み込み中...

Starlink 36610について

説明を読み込み中...

次回通過

Passes for default location (London). Set your location on the main map for personalized predictions.

高度履歴

Loading altitude history...

軌道要素

1 67637U 26020W 26146.16738695 .00020931 00000-0 76742-3 0 9997
2 67637 43.0033 62.1513 0001411 274.7598 85.3093 15.27603702 17965
Epoch: May 26, 2026 • Age: 14 hours

現在のステータス

高度 482.1 km
速度 7.63 km/s
衛星直下点 6.13°N, 91.62°W
打ち上げ日 Jan 30, 2026
運用期間 0.3 years
タイプ internet

技術仕様

分類 Payload
質量 575.00 kg
乾燥質量 530.00 kg
総質量 575.00 kg
長さ 0.30 m
直径 4.10 m
スパン 29.00 m
形状 Box + pan
製造者 SPXS
バスタイプ Starlink V2MO
フェーズステータス In Orbit
所有者/国 SPXS/US

Most Searched